Валуево

Россия / Московская область     55°34′14″N   37°21′14″E
темп.,
°C
ветер,
м/с
пор.,
м/с
влажн.,
%
обл.,
%
осадки,
мм/ч
давл.,
гПа
погр.,
м
15 мая, сб
сб1500:00+13вюв399877 1.1 1010241
03:00+13вюв3898100 1.1 1009159
06:00+14вюв389715 0.0 1008226
09:00+18ююз368433 1.2 1008549
12:00+21ююз46697 2.3 10081209
15:00+22ююз585341 2.6 10082039
18:00+18ююз597313 0.5 1008912
21:00+14ю4129011 0.5 1009501
16 мая, вс
вс1600:00+13ююз512937 0.0 1010554
03:00+11ююз4119752 0.0 1011338
06:00+12ююз310940 0.0 1012342
09:00+17ююз510685 0.0 1012877
12:00+19ююз696018 0.5 10121743
15:00+21юз575158 1.3 10122029
18:00+19зюз36660 0.0 10131041
21:00+14юз22875 0.0 101413
17 мая, пн
пн1700:00+13ююз1189100 0.0 101511
03:00+12юв2290100 0.0 101511
06:00+13в248814 0.0 1015115
09:00+19вюв467041 0.0 1014454
12:00+22вюв5763100 0.0 1013996
15:00+24вюв6960100 0.0 10111200
18:00+23вюв5107229 0.0 1010851
21:00+19юв5158723 0.0 1009575
18 мая, вт
вт1800:00+17юв51583100 0.0 1008450
03:00+15вюв4138996 0.0 1007346
06:00+15юв4138374 0.0 1006373
09:00+20юв6116997 0.0 1006582
12:00+24ююв711609 0.0 10061586
15:00+23ю6105810 0.6 10061632
18:00+20ю587287 0.1 10071124
21:00+16ю3989100 1.6 1007268
19 мая, ср
ср1900:00+14ю239283 0.0 100768
03:00+13юв2396100 0.1 100653
06:00+14вюв2493100 0.0 1005145
09:00+17юв3582100 0.1 1003436
12:00+20ююв5770100 1.8 10021103
15:00+18ююв5884100 4.3 1000820
18:00+13зюз71192100 1.5 1000673
21:00+10зюз81791100 1.6 10021181